Zurück zum Katalog

STARLINK-37104

AktivKommunikationSSO
NORAD 68231·PAYLOAD·🇺🇸 United States

Gestartet Mar 17, 2026 von Vandenberg Space Force Base

Loading…

Nächste Überflüge (nächste 24 Stunden)

TLE

AktuellSource: CelesTrak SupGP

Epoche: Sep 14, 2026, 21:43 UTC

1 68231C 26053AA  26257.90534722  .00007197  00000+0  22334-3 0  2577
2 68231  97.2848 131.8294 0002207  90.7404 152.8089 15.33445229    15

Verfolge STARLINK-37104 in Echtzeit mit AllMySat

Download on the App Store